ITY1173 LIRF-LICA

Flight info

Callsign ITY1173
Flight time 0h 46m
Altitude 33000
Route RIFFI DCT PNZ DCT VEXUV DCT EVINO DCT ARBUM
Aircraft A320/M-SDE3FGHIRWY/LB1

Departure

Time 2026-05-06 15:59
Airport Rome–Fiumicino Leonardo da Vinci International Airport (LIRF)

Arrival

Time 2026-05-06 16:46
Airport Lamezia Terme Sant'Eufemia International Airport (LICA)
Time Latitude Longitude Altitude Speed Heading
2026-05-06 15:23 41.79764 12.25662 14 ft 0 kts 295°
2026-05-06 15:47 41.79763 12.25666 14 ft 3 kts 295°
2026-05-06 15:47 41.79754 12.25693 16 ft 3 kts 295°
2026-05-06 15:47 41.79740 12.25717 15 ft 4 kts 345°
2026-05-06 15:48 41.79716 12.25714 15 ft 3 kts 25°
2026-05-06 15:52 41.79717 12.25715 14 ft 2 kts 25°
2026-05-06 15:52 41.79745 12.25732 16 ft 6 kts 25°
2026-05-06 15:52 41.79784 12.25757 16 ft 9 kts 25°
2026-05-06 15:52 41.79840 12.25795 14 ft 8 kts 31°
2026-05-06 15:53 41.79906 12.25843 14 ft 12 kts 24°
2026-05-06 15:53 41.79983 12.25891 15 ft 12 kts 25°
2026-05-06 15:53 41.80058 12.25937 14 ft 12 kts 24°
2026-05-06 15:53 41.80130 12.25981 16 ft 11 kts 25°
2026-05-06 15:54 41.80213 12.26033 15 ft 16 kts 25°
2026-05-06 15:54 41.80320 12.26100 14 ft 18 kts 25°
2026-05-06 15:54 41.80437 12.26169 16 ft 16 kts 18°
2026-05-06 15:54 41.80518 12.26207 16 ft 11 kts 53°
2026-05-06 15:55 41.80551 12.26321 17 ft 15 kts 70°
2026-05-06 15:55 41.80590 12.26465 17 ft 18 kts 70°
2026-05-06 15:55 41.80636 12.26638 17 ft 21 kts 71°
2026-05-06 15:55 41.80691 12.26828 14 ft 20 kts 69°
2026-05-06 15:56 41.80736 12.26989 15 ft 15 kts 70°
2026-05-06 15:56 41.80795 12.27045 13 ft 10 kts 357°
2026-05-06 15:56 41.80858 12.27017 13 ft 9 kts 340°
2026-05-06 15:56 41.80872 12.27010 13 ft 0 kts 340°
2026-05-06 15:57 41.80885 12.27003 13 ft 6 kts 340°
2026-05-06 15:57 41.80926 12.26983 13 ft 6 kts 340°
2026-05-06 15:57 41.80956 12.26949 12 ft 6 kts 292°
2026-05-06 15:58 41.80951 12.26902 13 ft 4 kts 251°
2026-05-06 15:58 41.80950 12.26900 13 ft 0 kts 250°
2026-05-06 15:58 41.80903 12.26729 14 ft 53 kts 249°
2026-05-06 15:58 41.80695 12.25975 18 ft 117 kts 250°
2026-05-06 15:59 41.80345 12.24721 20 ft 168 kts 247°
2026-05-06 15:59 41.79910 12.23205 502 ft 174 kts 245°
2026-05-06 15:59 41.79472 12.21704 1225 ft 172 kts 240°
2026-05-06 15:59 41.78779 12.20463 1950 ft 165 kts 218°
2026-05-06 16:00 41.77908 12.19474 2590 ft 163 kts 218°
2026-05-06 16:00 41.77037 12.18497 3172 ft 163 kts 218°
2026-05-06 16:00 41.76120 12.17478 3512 ft 182 kts 215°
2026-05-06 16:00 41.74918 12.16811 3813 ft 198 kts 186°
2026-05-06 16:01 41.73452 12.16827 4086 ft 223 kts 179°
2026-05-06 16:01 41.71819 12.16907 4458 ft 246 kts 179°
2026-05-06 16:01 41.70066 12.16995 5165 ft 256 kts 179°
2026-05-06 16:01 41.68276 12.17085 6064 ft 260 kts 179°
2026-05-06 16:02 41.66449 12.17175 6974 ft 266 kts 179°
2026-05-06 16:02 41.64585 12.17268 7986 ft 271 kts 178°
2026-05-06 16:02 41.62683 12.17361 9210 ft 275 kts 179°
2026-05-06 16:02 41.60758 12.17461 10340 ft 282 kts 180°
2026-05-06 16:03 41.58716 12.17549 10698 ft 304 kts 180°
2026-05-06 16:03 41.56537 12.17642 11050 ft 320 kts 181°
2026-05-06 16:03 41.54303 12.17335 11664 ft 325 kts 191°
2026-05-06 16:03 41.52036 12.17075 12361 ft 331 kts 178°
2026-05-06 16:04 41.49759 12.17605 13053 ft 337 kts 163°
2026-05-06 16:04 41.47628 12.18955 13755 ft 344 kts 148°
2026-05-06 16:04 41.45804 12.21054 14368 ft 350 kts 136°
2026-05-06 16:04 41.44104 12.23406 14986 ft 354 kts 136°
2026-05-06 16:05 41.42391 12.25781 15606 ft 357 kts 137°
2026-05-06 16:05 41.40661 12.28175 16206 ft 361 kts 137°
2026-05-06 16:05 41.38912 12.30595 16806 ft 364 kts 137°
2026-05-06 16:05 41.37145 12.33038 17410 ft 368 kts 137°
2026-05-06 16:06 41.35362 12.35497 18010 ft 371 kts 138°
2026-05-06 16:06 41.33558 12.37981 18556 ft 375 kts 138°
2026-05-06 16:06 41.31733 12.40491 19070 ft 378 kts 139°
2026-05-06 16:06 41.29897 12.43008 19586 ft 381 kts 139°
2026-05-06 16:07 41.28046 12.45540 20105 ft 384 kts 139°
2026-05-06 16:07 41.26173 12.48103 20604 ft 388 kts 140°
2026-05-06 16:07 41.24281 12.50694 21093 ft 392 kts 140°
2026-05-06 16:07 41.22367 12.53311 21578 ft 396 kts 140°
2026-05-06 16:08 41.20437 12.55949 22068 ft 401 kts 140°
2026-05-06 16:08 41.18485 12.58617 22542 ft 405 kts 140°
2026-05-06 16:08 41.16515 12.61305 23015 ft 408 kts 140°
2026-05-06 16:08 41.14524 12.64020 23479 ft 412 kts 140°
2026-05-06 16:09 41.12540 12.66727 23863 ft 416 kts 140°
2026-05-06 16:09 41.10493 12.69522 24265 ft 418 kts 140°
2026-05-06 16:09 41.08463 12.72294 24694 ft 420 kts 141°
2026-05-06 16:09 41.06448 12.75036 25073 ft 422 kts 141°
2026-05-06 16:10 41.04375 12.77852 25521 ft 421 kts 141°
2026-05-06 16:10 41.02350 12.80598 25885 ft 424 kts 141°
2026-05-06 16:10 41.00282 12.83401 26234 ft 426 kts 141°
2026-05-06 16:10 40.98206 12.86210 26603 ft 428 kts 141°
2026-05-06 16:11 40.96115 12.89038 26959 ft 430 kts 141°
2026-05-06 16:11 40.94018 12.91875 27318 ft 432 kts 141°
2026-05-06 16:11 40.91913 12.94722 27664 ft 435 kts 140°
2026-05-06 16:11 40.89934 12.97795 28009 ft 442 kts 135°
2026-05-06 16:12 40.88030 13.00996 28338 ft 444 kts 135°
2026-05-06 16:12 40.86760 13.03123 28553 ft 446 kts 135°
2026-05-06 16:12 40.84832 13.06344 28883 ft 448 kts 135°
2026-05-06 16:12 40.82889 13.09577 29182 ft 450 kts 135°
2026-05-06 16:13 40.80942 13.12817 29467 ft 452 kts 134°
2026-05-06 16:13 40.78984 13.16071 29774 ft 453 kts 134°
2026-05-06 16:13 40.77021 13.19332 30068 ft 455 kts 134°
2026-05-06 16:13 40.75048 13.22608 30307 ft 457 kts 134°
2026-05-06 16:14 40.73070 13.25892 30526 ft 459 kts 134°
2026-05-06 16:14 40.71081 13.29203 30739 ft 461 kts 133°
2026-05-06 16:14 40.69284 13.32752 30944 ft 468 kts 127°
2026-05-06 16:14 40.67558 13.36390 31146 ft 470 kts 128°
2026-05-06 16:15 40.65819 13.40043 31363 ft 471 kts 128°
2026-05-06 16:15 40.64073 13.43696 31649 ft 470 kts 128°
2026-05-06 16:15 40.62331 13.47334 31925 ft 470 kts 128°
2026-05-06 16:15 40.60586 13.50979 32167 ft 471 kts 128°
2026-05-06 16:16 40.58840 13.54625 32403 ft 472 kts 128°
2026-05-06 16:16 40.57085 13.58280 32671 ft 472 kts 128°
2026-05-06 16:16 40.55330 13.61933 32928 ft 472 kts 128°
2026-05-06 16:16 40.53584 13.65574 33004 ft 467 kts 128°
2026-05-06 16:17 40.50164 13.72710 33009 ft 459 kts 128°
2026-05-06 16:17 40.46747 13.79772 33014 ft 458 kts 128°
2026-05-06 16:18 40.43352 13.86773 32995 ft 458 kts 128°
2026-05-06 16:18 40.39928 13.93829 33004 ft 459 kts 128°
2026-05-06 16:19 40.36503 14.00882 33004 ft 459 kts 128°
2026-05-06 16:19 40.33075 14.07930 32995 ft 458 kts 128°
2026-05-06 16:20 40.29637 14.14962 32998 ft 458 kts 128°
2026-05-06 16:20 40.26199 14.21983 32994 ft 458 kts 128°
2026-05-06 16:21 40.24481 14.25492 32855 ft 455 kts 128°
2026-05-06 16:21 40.22785 14.28965 32336 ft 451 kts 128°
2026-05-06 16:21 40.21099 14.32409 31817 ft 447 kts 128°
2026-05-06 16:21 40.19425 14.35816 31326 ft 444 kts 128°
2026-05-06 16:22 40.17763 14.39200 30835 ft 440 kts 128°
2026-05-06 16:22 40.16113 14.42556 30359 ft 437 kts 128°
2026-05-06 16:22 40.14473 14.45884 29862 ft 434 kts 128°
2026-05-06 16:22 40.12843 14.49183 29334 ft 430 kts 128°
2026-05-06 16:23 40.11225 14.52452 28823 ft 427 kts 128°
2026-05-06 16:23 40.09617 14.55695 28326 ft 423 kts 128°
2026-05-06 16:23 40.08021 14.58909 27843 ft 420 kts 128°
2026-05-06 16:23 40.06440 14.62093 27373 ft 417 kts 128°
2026-05-06 16:24 40.04868 14.65259 26902 ft 414 kts 128°
2026-05-06 16:24 40.03313 14.68395 26444 ft 411 kts 128°
2026-05-06 16:24 40.01765 14.71517 26010 ft 408 kts 128°
2026-05-06 16:24 40.00228 14.74609 25574 ft 405 kts 128°
2026-05-06 16:25 39.98695 14.77682 25120 ft 402 kts 128°
2026-05-06 16:25 39.97175 14.80726 24710 ft 399 kts 128°
2026-05-06 16:25 39.95664 14.83746 24285 ft 396 kts 128°
2026-05-06 16:25 39.94164 14.86744 23876 ft 393 kts 128°
2026-05-06 16:26 39.92697 14.89673 23498 ft 389 kts 128°
2026-05-06 16:26 39.91227 14.92608 23027 ft 385 kts 127°
2026-05-06 16:26 39.89770 14.95522 22533 ft 383 kts 127°
2026-05-06 16:26 39.88319 14.98419 22086 ft 380 kts 127°
2026-05-06 16:27 39.86880 15.01287 21655 ft 377 kts 127°
2026-05-06 16:27 39.85453 15.04130 21228 ft 374 kts 127°
2026-05-06 16:27 39.84033 15.06952 20813 ft 371 kts 127°
2026-05-06 16:27 39.82621 15.09752 20414 ft 369 kts 128°
2026-05-06 16:28 39.81219 15.12533 20017 ft 366 kts 128°
2026-05-06 16:28 39.79831 15.15290 19625 ft 363 kts 128°
2026-05-06 16:28 39.78450 15.18025 19242 ft 361 kts 128°
2026-05-06 16:28 39.77076 15.20737 18863 ft 358 kts 128°
2026-05-06 16:29 39.75709 15.23432 18503 ft 356 kts 128°
2026-05-06 16:29 39.74353 15.26108 18117 ft 353 kts 128°
2026-05-06 16:29 39.73008 15.28764 17694 ft 351 kts 128°
2026-05-06 16:29 39.71625 15.31364 17220 ft 348 kts 133°
2026-05-06 16:30 39.69978 15.33624 16797 ft 341 kts 143°
2026-05-06 16:30 39.68788 15.34948 16549 ft 340 kts 144°
2026-05-06 16:30 39.66395 15.37607 16039 ft 337 kts 144°
2026-05-06 16:30 39.64617 15.39587 15662 ft 335 kts 144°
2026-05-06 16:31 39.62851 15.41552 15294 ft 334 kts 143°
2026-05-06 16:31 39.61094 15.43505 15030 ft 332 kts 143°
2026-05-06 16:31 39.59339 15.45458 15011 ft 333 kts 143°
2026-05-06 16:31 39.57579 15.47411 15013 ft 333 kts 143°
2026-05-06 16:32 39.55817 15.49371 15014 ft 333 kts 143°
2026-05-06 16:32 39.54057 15.51329 15022 ft 333 kts 143°
2026-05-06 16:32 39.52306 15.53276 14768 ft 331 kts 143°
2026-05-06 16:32 39.50566 15.55211 14398 ft 329 kts 143°
2026-05-06 16:33 39.48830 15.57137 14042 ft 328 kts 143°
2026-05-06 16:33 39.47104 15.59047 13680 ft 326 kts 143°
2026-05-06 16:33 39.45387 15.60947 13284 ft 324 kts 143°
2026-05-06 16:34 39.42001 15.64688 12520 ft 320 kts 143°
2026-05-06 16:34 39.40305 15.66552 12097 ft 320 kts 143°
2026-05-06 16:34 39.38613 15.68413 11709 ft 318 kts 143°
2026-05-06 16:34 39.36933 15.70263 11336 ft 317 kts 143°
2026-05-06 16:35 39.35276 15.72092 11144 ft 308 kts 143°
2026-05-06 16:35 39.33668 15.73871 10922 ft 302 kts 143°
2026-05-06 16:35 39.32081 15.75621 10607 ft 299 kts 143°
2026-05-06 16:35 39.30500 15.77356 10225 ft 298 kts 143°
2026-05-06 16:36 39.28916 15.79088 9732 ft 297 kts 143°
2026-05-06 16:36 39.27344 15.80807 9027 ft 295 kts 143°
2026-05-06 16:36 39.25784 15.82510 8356 ft 292 kts 142°
2026-05-06 16:36 39.24237 15.84198 7688 ft 290 kts 142°
2026-05-06 16:37 39.22713 15.85859 7178 ft 283 kts 142°
2026-05-06 16:37 39.21215 15.87489 7034 ft 282 kts 144°
2026-05-06 16:37 39.19541 15.88759 7020 ft 279 kts 160°
2026-05-06 16:37 39.17692 15.89496 7025 ft 279 kts 166°
2026-05-06 16:38 39.15826 15.90170 7021 ft 279 kts 166°
2026-05-06 16:38 39.13957 15.90845 6922 ft 276 kts 166°
2026-05-06 16:38 39.12114 15.91513 6542 ft 274 kts 166°
2026-05-06 16:38 39.10283 15.92178 6137 ft 273 kts 165°
2026-05-06 16:39 39.08461 15.92836 5739 ft 271 kts 165°
2026-05-06 16:39 39.06659 15.93486 5365 ft 267 kts 165°
2026-05-06 16:39 39.04875 15.94130 5002 ft 265 kts 165°
2026-05-06 16:39 39.03140 15.94779 4829 ft 253 kts 162°
2026-05-06 16:40 39.01522 15.95505 4701 ft 240 kts 160°
2026-05-06 16:40 38.99999 15.96249 4442 ft 228 kts 159°
2026-05-06 16:40 38.98537 15.96976 4020 ft 224 kts 159°
2026-05-06 16:40 38.97093 15.97692 3551 ft 222 kts 159°
2026-05-06 16:41 38.95657 15.98400 3086 ft 220 kts 159°
2026-05-06 16:41 38.94281 15.99218 2629 ft 217 kts 142°
2026-05-06 16:41 38.93372 16.00686 2524 ft 203 kts 113°
2026-05-06 16:41 38.93065 16.02388 2554 ft 191 kts 99°
2026-05-06 16:42 38.92878 16.04046 2541 ft 183 kts 99°
2026-05-06 16:42 38.92696 16.05632 2522 ft 178 kts 100°
2026-05-06 16:42 38.92516 16.07201 2520 ft 178 kts 99°
2026-05-06 16:42 38.92335 16.08776 2241 ft 176 kts 99°
2026-05-06 16:43 38.92162 16.10293 1998 ft 167 kts 99°
2026-05-06 16:43 38.91999 16.11728 1765 ft 157 kts 98°
2026-05-06 16:43 38.91842 16.13079 1564 ft 149 kts 98°
2026-05-06 16:43 38.91688 16.14381 1374 ft 146 kts 98°
2026-05-06 16:44 38.91540 16.15641 1217 ft 142 kts 97°
2026-05-06 16:44 38.91392 16.16910 1010 ft 141 kts 97°
2026-05-06 16:44 38.91248 16.18142 830 ft 138 kts 97°
2026-05-06 16:44 38.91106 16.19357 648 ft 137 kts 97°
2026-05-06 16:45 38.90967 16.20551 460 ft 137 kts 97°
2026-05-06 16:45 38.90828 16.21748 265 ft 134 kts 96°
2026-05-06 16:45 38.90693 16.22918 69 ft 132 kts 96°
2026-05-06 16:45 38.90569 16.23990 30 ft 104 kts 99°
2026-05-06 16:46 38.90484 16.24704 32 ft 62 kts 98°
2026-05-06 16:46 38.90433 16.25164 34 ft 47 kts 97°
2026-05-06 16:46 38.90396 16.25468 32 ft 20 kts 99°
2026-05-06 16:46 38.90425 16.25564 32 ft 9 kts 26°
2026-05-06 16:47 38.90481 16.25549 31 ft 7 kts 328°
2026-05-06 16:47 38.90512 16.25520 34 ft 4 kts 324°
2026-05-06 16:47 38.90527 16.25506 35 ft 1 kts 322°
2026-05-06 16:47 38.90530 16.25502 35 ft 2 kts 322°
2026-05-06 16:48 38.90553 16.25478 35 ft 4 kts 319°
2026-05-06 16:48 38.90568 16.25460 35 ft 2 kts 315°
2026-05-06 16:48 38.90576 16.25449 35 ft 1 kts 313°
2026-05-06 16:48 38.90587 16.25432 35 ft 6 kts 309°
2026-05-06 16:49 38.90614 16.25383 32 ft 7 kts 301°
2026-05-06 16:49 38.90645 16.25327 33 ft 8 kts 314°
2026-05-06 16:49 38.90689 16.25279 32 ft 8 kts 317°
2026-05-06 16:49 38.90720 16.25228 32 ft 7 kts 294°
2026-05-06 16:50 38.90739 16.25191 31 ft 4 kts 331°
2026-05-06 16:50 38.90765 16.25186 32 ft 3 kts 357°
2026-05-06 16:50 38.90784 16.25189 32 ft 2 kts
2026-05-06 16:50 38.90786 16.25190 32 ft 0 kts